Location: Famechon
(49.7599°N, 2.0615°E)
Time: 20:46:05
(UTC+00:00)

Cosmos 1741 Rocket - Pass Details

Date: 31 March 2025
Orbit: 758 x 778 km, 74.0° (Epoch: 28 April)

Event Time Altitude Azimuth Distance (km) Brightness Sun altitude
Rises 23:41:41 0° 339° (NNW) 3,237 8.2 -35.6°
Reaches altitude 10° 23:44:11 10° 346° (NNW) 2,310 7.2 -35.6°
Enters shadow 23:47:12 30° 10° (N) 1,345 5.7 -35.7°
